TimeEDT,TemperatureF,Dew PointF,Humidity,Sea Level PressureIn,VisibilityMPH,Wind Direction,Wind SpeedMPH,Gust SpeedMPH,PrecipitationIn,Events,Conditions,WindDirDegrees,DateUTC
12:15 AM,62.6,60.8,94,30.13,7.0,Calm,Calm,-,N/A,,Clear,0,2012-10-11 04:15:00
12:35 AM,62.6,60.8,94,30.13,7.0,Calm,Calm,-,N/A,,Clear,0,2012-10-11 04:35:00
12:55 AM,62.6,60.8,94,30.12,7.0,Calm,Calm,-,N/A,,Clear,0,2012-10-11 04:55:00
1:15 AM,60.8,59.0,94,30.13,5.0,Calm,Calm,-,N/A,,Clear,0,2012-10-11 05:15:00
1:35 AM,60.8,59.0,94,30.12,5.0,Calm,Calm,-,N/A,,Clear,0,2012-10-11 05:35:00
1:55 AM,60.8,59.0,94,30.12,5.0,Calm,Calm,-,N/A,,Clear,0,2012-10-11 05:55:00
2:15 AM,60.8,59.0,94,30.12,5.0,Calm,Calm,-,N/A,,Clear,0,2012-10-11 06:15:00
2:35 AM,59.0,59.0,100,30.12,5.0,Calm,Calm,-,N/A,,Clear,0,2012-10-11 06:35:00
2:55 AM,59.0,57.2,94,30.11,5.0,Calm,Calm,-,N/A,,Clear,0,2012-10-11 06:55:00
3:35 AM,59.0,57.2,94,30.11,1.8,Calm,Calm,-,N/A,,Mist,0,2012-10-11 07:35:00
3:55 AM,59.0,55.4,88,30.10,5.0,Calm,Calm,-,N/A,,Clear,0,2012-10-11 07:55:00
4:15 AM,57.2,55.4,94,30.10,4.0,Calm,Calm,-,N/A,,Clear,0,2012-10-11 08:15:00
4:35 AM,57.2,55.4,94,30.11,4.0,Calm,Calm,-,N/A,,Clear,0,2012-10-11 08:35:00
4:55 AM,57.2,55.4,94,30.10,5.0,Calm,Calm,-,N/A,,Clear,0,2012-10-11 08:55:00
5:15 AM,57.2,55.4,94,30.11,5.0,Calm,Calm,-,N/A,,Clear,0,2012-10-11 09:15:00
5:35 AM,55.4,53.6,94,30.12,4.0,Calm,Calm,-,N/A,,Clear,0,2012-10-11 09:35:00
5:55 AM,55.4,53.6,94,30.12,2.5,Calm,Calm,-,N/A,,Clear,0,2012-10-11 09:55:00
6:35 AM,53.6,51.8,94,30.13,3.0,Calm,Calm,-,N/A,,Clear,0,2012-10-11 10:35:00
6:55 AM,51.8,51.8,100,30.13,4.0,Calm,Calm,-,N/A,,Clear,0,2012-10-11 10:55:00
7:15 AM,51.8,50.0,94,30.14,3.0,Calm,Calm,-,N/A,,Clear,0,2012-10-11 11:15:00
7:35 AM,51.8,50.0,94,30.14,2.0,Calm,Calm,-,N/A,,Clear,0,2012-10-11 11:35:00
7:55 AM,50.0,50.0,100,30.15,2.5,Calm,Calm,-,N/A,,Clear,0,2012-10-11 11:55:00
8:35 AM,50.0,50.0,100,30.16,3.0,Calm,Calm,-,N/A,,Clear,0,2012-10-11 12:35:00
8:55 AM,50.0,50.0,100,30.17,5.0,NE,3.5,-,N/A,,Clear,40,2012-10-11 12:55:00
9:15 AM,51.8,51.8,100,30.17,10.0,NE,4.6,-,N/A,,Clear,40,2012-10-11 13:15:00
9:35 AM,62.6,59.0,88,30.18,10.0,ENE,6.9,-,N/A,,Clear,60,2012-10-11 13:35:00
9:55 AM,71.6,64.4,78,30.19,10.0,ENE,6.9,-,N/A,,Clear,60,2012-10-11 13:55:00
10:35 AM,77.0,66.2,69,30.19,10.0,NE,5.8,16.1,N/A,,Clear,40,2012-10-11 14:35:00
10:55 AM,78.8,66.2,65,30.19,10.0,NE,8.1,17.3,N/A,,Clear,40,2012-10-11 14:55:00
11:15 AM,78.8,66.2,65,30.19,10.0,NE,5.8,-,N/A,,Scattered Clouds,40,2012-10-11 15:15:00
11:35 AM,80.6,66.2,61,30.19,10.0,NE,6.9,-,N/A,,Scattered Clouds,50,2012-10-11 15:35:00
11:55 AM,80.6,64.4,58,30.18,10.0,East,9.2,-,N/A,,Clear,80,2012-10-11 15:55:00
12:15 PM,82.4,64.4,54,30.18,10.0,NE,4.6,-,N/A,,Clear,50,2012-10-11 16:15:00
12:35 PM,82.4,64.4,54,30.17,10.0,ENE,8.1,-,N/A,,Clear,60,2012-10-11 16:35:00
12:55 PM,82.4,64.4,54,30.17,10.0,ENE,5.8,-,N/A,,Clear,70,2012-10-11 16:55:00
1:15 PM,82.4,64.4,54,30.16,10.0,East,8.1,-,N/A,,Clear,80,2012-10-11 17:15:00
1:35 PM,84.2,64.4,51,30.15,10.0,East,9.2,-,N/A,,Clear,80,2012-10-11 17:35:00
1:55 PM,86.0,66.2,51,30.15,10.0,ENE,9.2,-,N/A,,Scattered Clouds,70,2012-10-11 17:55:00
2:15 PM,86.0,64.4,48,30.14,10.0,ENE,4.6,-,N/A,,Scattered Clouds,70,2012-10-11 18:15:00
2:35 PM,86.0,64.4,48,30.14,10.0,ENE,8.1,-,N/A,,Clear,70,2012-10-11 18:35:00
2:55 PM,86.0,64.4,48,30.13,10.0,NE,8.1,-,N/A,,Clear,50,2012-10-11 18:55:00
3:15 PM,86.0,62.6,45,30.13,10.0,NE,8.1,-,N/A,,Clear,50,2012-10-11 19:15:00
3:35 PM,87.8,64.4,46,30.12,10.0,ENE,5.8,-,N/A,,Clear,60,2012-10-11 19:35:00
4:15 PM,86.0,64.4,48,30.12,10.0,NNE,6.9,-,N/A,,Clear,30,2012-10-11 20:15:00
4:35 PM,86.0,64.4,48,30.12,10.0,NE,6.9,-,N/A,,Clear,50,2012-10-11 20:35:00
4:55 PM,86.0,64.4,48,30.12,10.0,North,4.6,-,N/A,,Clear,10,2012-10-11 20:55:00
5:15 PM,86.0,64.4,48,30.12,10.0,NNE,5.8,-,N/A,,Clear,30,2012-10-11 21:15:00
5:35 PM,86.0,64.4,48,30.12,10.0,NE,4.6,-,N/A,,Clear,50,2012-10-11 21:35:00
5:55 PM,84.2,64.4,51,30.13,10.0,NNE,4.6,-,N/A,,Clear,20,2012-10-11 21:55:00
6:15 PM,82.4,64.4,54,30.13,10.0,NNE,3.5,-,N/A,,Clear,30,2012-10-11 22:15:00
6:35 PM,82.4,66.2,58,30.13,10.0,NNE,3.5,-,N/A,,Scattered Clouds,20,2012-10-11 22:35:00
7:35 PM,77.0,66.2,69,30.14,10.0,Calm,Calm,-,N/A,,Clear,0,2012-10-11 23:35:00
7:55 PM,75.2,66.2,73,30.14,10.0,NNE,3.5,-,N/A,,Clear,30,2012-10-11 23:55:00
8:15 PM,73.4,64.4,73,30.15,10.0,Calm,Calm,-,N/A,,Clear,0,2012-10-12 00:15:00
8:35 PM,73.4,64.4,73,30.15,10.0,Calm,Calm,-,N/A,,Clear,0,2012-10-12 00:35:00
9:15 PM,71.6,64.4,78,30.17,10.0,Calm,Calm,-,N/A,,Clear,0,2012-10-12 01:15:00
9:35 PM,71.6,64.4,78,30.17,10.0,Calm,Calm,-,N/A,,Clear,0,2012-10-12 01:35:00
9:55 PM,71.6,64.4,78,30.17,10.0,Calm,Calm,-,N/A,,Clear,0,2012-10-12 01:55:00
10:15 PM,69.8,64.4,83,30.18,10.0,NNE,3.5,-,N/A,,Clear,30,2012-10-12 02:15:00
11:15 PM,68.0,62.6,83,30.19,10.0,NNE,3.5,-,N/A,,Clear,30,2012-10-12 03:15:00
11:35 PM,68.0,62.6,83,30.18,10.0,Calm,Calm,-,N/A,,Clear,0,2012-10-12 03:35:00
11:55 PM,66.2,62.6,88,30.18,10.0,Calm,Calm,-,N/A,,Clear,0,2012-10-12 03:55:00